XARPG LSZS-LSGS

Flight info

Callsign XARPG
Flight time 0h 44m
Altitude 18000
Route PELAD DCT SOPER DCT VADAR
Aircraft CL60/M-SBDE1E2E3FGHIJ1J4J5J7M3RWXYZ/LB1V1D1

Departure

Time 2026-05-05 05:19
Airport Engadin Airport (LSZS)

Arrival

Time 2026-05-05 06:03
Airport Sion Airport (LSGS)
Time Latitude Longitude Altitude Speed Heading
2026-05-05 04:41 46.53129 9.88029 5583 ft 0 kts 300°
2026-05-05 05:10 46.53133 9.88019 5584 ft 3 kts 298°
2026-05-05 05:10 46.53131 9.87977 5584 ft 6 kts 223°
2026-05-05 05:10 46.53088 9.87937 5585 ft 8 kts 205°
2026-05-05 05:11 46.53040 9.87931 5586 ft 3 kts 173°
2026-05-05 05:11 46.53007 9.87938 5586 ft 6 kts 144°
2026-05-05 05:11 46.52981 9.88001 5586 ft 8 kts 119°
2026-05-05 05:11 46.52946 9.88091 5586 ft 10 kts 120°
2026-05-05 05:12 46.52947 9.88151 5585 ft 7 kts 26°
2026-05-05 05:12 46.53008 9.88199 5585 ft 12 kts 30°
2026-05-05 05:12 46.53095 9.88270 5583 ft 16 kts 29°
2026-05-05 05:12 46.53195 9.88351 5581 ft 15 kts 29°
2026-05-05 05:13 46.53301 9.88436 5579 ft 19 kts 28°
2026-05-05 05:13 46.53431 9.88541 5577 ft 22 kts 29°
2026-05-05 05:13 46.53579 9.88662 5574 ft 25 kts 30°
2026-05-05 05:13 46.53738 9.88791 5572 ft 23 kts 30°
2026-05-05 05:14 46.53855 9.88886 5571 ft 16 kts 29°
2026-05-05 05:14 46.53964 9.88975 5570 ft 19 kts 30°
2026-05-05 05:14 46.54069 9.89058 5570 ft 11 kts 16°
2026-05-05 05:14 46.54129 9.89009 5570 ft 8 kts 300°
2026-05-05 05:15 46.54133 9.88966 5570 ft 4 kts 200°
2026-05-05 05:15 46.54106 9.88947 5570 ft 0 kts 208°
2026-05-05 05:18 46.53966 9.88838 5571 ft 70 kts 208°
2026-05-05 05:18 46.53262 9.88263 5583 ft 153 kts 207°
2026-05-05 05:19 46.52232 9.87417 6045 ft 182 kts 208°
2026-05-05 05:19 46.51153 9.86343 6864 ft 197 kts 218°
2026-05-05 05:19 46.50133 9.85067 8055 ft 193 kts 219°
2026-05-05 05:19 46.49135 9.83810 9150 ft 196 kts 218°
2026-05-05 05:20 46.48076 9.82495 10055 ft 212 kts 218°
2026-05-05 05:20 46.46880 9.81048 10906 ft 233 kts 217°
2026-05-05 05:20 46.45606 9.79540 12046 ft 241 kts 217°
2026-05-05 05:20 46.44328 9.78031 13281 ft 243 kts 217°
2026-05-05 05:21 46.43021 9.76489 14430 ft 246 kts 217°
2026-05-05 05:21 46.41701 9.74935 15523 ft 250 kts 217°
2026-05-05 05:21 46.40352 9.73349 16583 ft 253 kts 217°
2026-05-05 05:21 46.38990 9.71748 17593 ft 256 kts 218°
2026-05-05 05:22 46.37814 9.69774 18565 ft 263 kts 241°
2026-05-05 05:22 46.37393 9.67198 19490 ft 274 kts 268°
2026-05-05 05:22 46.37933 9.64506 20403 ft 287 kts 300°
2026-05-05 05:22 46.39400 9.62524 21229 ft 301 kts 325°
2026-05-05 05:23 46.41288 9.60994 21791 ft 315 kts 327°
2026-05-05 05:23 46.43275 9.59542 21967 ft 319 kts 336°
2026-05-05 05:23 46.45433 9.58360 21995 ft 343 kts 329°
2026-05-05 05:23 46.47351 9.56119 22003 ft 365 kts 309°
2026-05-05 05:24 46.49140 9.53297 21977 ft 394 kts 309°
2026-05-05 05:24 46.51053 9.50267 21989 ft 417 kts 309°
2026-05-05 05:24 46.53089 9.47068 21975 ft 427 kts 309°
2026-05-05 05:24 46.55111 9.43934 21965 ft 426 kts 310°
2026-05-05 05:25 46.57178 9.40779 21957 ft 423 kts 310°
2026-05-05 05:25 46.59212 9.37721 21944 ft 422 kts 311°
2026-05-05 05:25 46.61269 9.34686 21938 ft 422 kts 311°
2026-05-05 05:25 46.63373 9.31645 21934 ft 421 kts 311°
2026-05-05 05:26 46.65490 9.28585 21940 ft 420 kts 311°
2026-05-05 05:26 46.67547 9.25609 21949 ft 419 kts 311°
2026-05-05 05:26 46.69627 9.22594 21946 ft 420 kts 311°
2026-05-05 05:26 46.71725 9.19553 21944 ft 420 kts 311°
2026-05-05 05:27 46.73818 9.16514 21953 ft 433 kts 311°
2026-05-05 05:27 46.75990 9.13353 21950 ft 454 kts 311°
2026-05-05 05:27 46.80662 9.06549 21933 ft 476 kts 311°
2026-05-05 05:28 46.83044 9.03079 21932 ft 479 kts 311°
2026-05-05 05:28 46.85283 8.99521 21937 ft 478 kts 304°
2026-05-05 05:28 46.86961 8.95367 21934 ft 473 kts 290°
2026-05-05 05:28 46.87904 8.90777 21931 ft 467 kts 277°
2026-05-05 05:29 46.88084 8.86107 21931 ft 462 kts 264°
2026-05-05 05:29 46.87701 8.81447 21929 ft 461 kts 259°
2026-05-05 05:29 46.87244 8.76815 21928 ft 461 kts 259°
2026-05-05 05:29 46.86788 8.72163 21933 ft 462 kts 259°
2026-05-05 05:30 46.86328 8.67482 21936 ft 462 kts 259°
2026-05-05 05:30 46.85872 8.62865 21938 ft 462 kts 259°
2026-05-05 05:30 46.85411 8.58212 21936 ft 462 kts 259°
2026-05-05 05:30 46.84943 8.53513 21940 ft 462 kts 259°
2026-05-05 05:31 46.84475 8.48829 21889 ft 463 kts 259°
2026-05-05 05:31 46.84013 8.44235 21885 ft 462 kts 259°
2026-05-05 05:31 46.83543 8.39566 21903 ft 463 kts 259°
2026-05-05 05:31 46.83065 8.34852 21896 ft 464 kts 258°
2026-05-05 05:32 46.82589 8.30171 21906 ft 464 kts 258°
2026-05-05 05:32 46.82113 8.25510 21910 ft 465 kts 258°
2026-05-05 05:32 46.81636 8.20850 21912 ft 465 kts 258°
2026-05-05 05:32 46.81145 8.16078 21916 ft 465 kts 258°
2026-05-05 05:33 46.80665 8.11433 21925 ft 465 kts 258°
2026-05-05 05:33 46.80181 8.06773 21925 ft 465 kts 258°
2026-05-05 05:33 46.79691 8.02064 21948 ft 465 kts 258°
2026-05-05 05:33 46.79198 7.97362 21937 ft 466 kts 258°
2026-05-05 05:34 46.78705 7.92663 21919 ft 466 kts 258°
2026-05-05 05:34 46.78208 7.87950 21959 ft 465 kts 258°
2026-05-05 05:34 46.77712 7.83265 21914 ft 467 kts 258°
2026-05-05 05:34 46.77214 7.78588 21944 ft 465 kts 258°
2026-05-05 05:35 46.76708 7.73847 21924 ft 466 kts 258°
2026-05-05 05:35 46.76209 7.69190 21940 ft 466 kts 259°
2026-05-05 05:35 46.75701 7.64469 21945 ft 466 kts 258°
2026-05-05 05:35 46.75185 7.59697 21936 ft 466 kts 258°
2026-05-05 05:36 46.74679 7.55029 21948 ft 466 kts 258°
2026-05-05 05:36 46.74170 7.50355 21927 ft 466 kts 259°
2026-05-05 05:36 46.73650 7.45602 21939 ft 466 kts 259°
2026-05-05 05:36 46.73139 7.40941 21945 ft 467 kts 259°
2026-05-05 05:37 46.72612 7.36165 21935 ft 467 kts 259°
2026-05-05 05:37 46.72095 7.31493 21930 ft 467 kts 258°
2026-05-05 05:37 46.71567 7.26741 21939 ft 467 kts 259°
2026-05-05 05:37 46.71050 7.22107 21936 ft 467 kts 258°
2026-05-05 05:38 46.70518 7.17352 21918 ft 467 kts 258°
2026-05-05 05:38 46.69987 7.12630 21930 ft 467 kts 258°
2026-05-05 05:38 46.69463 7.07982 21925 ft 467 kts 258°
2026-05-05 05:38 46.68930 7.03275 21918 ft 468 kts 258°
2026-05-05 05:39 46.68113 6.98689 21944 ft 464 kts 245°
2026-05-05 05:39 46.66358 6.94751 21929 ft 461 kts 226°
2026-05-05 05:39 46.63853 6.91834 21930 ft 459 kts 210°
2026-05-05 05:39 46.60830 6.90158 21924 ft 458 kts 193°
2026-05-05 05:40 46.57669 6.89920 21921 ft 459 kts 175°
2026-05-05 05:40 46.54545 6.91155 21932 ft 462 kts 156°
2026-05-05 05:40 46.51918 6.93857 21941 ft 467 kts 136°
2026-05-05 05:40 46.50026 6.97748 21906 ft 472 kts 120°
2026-05-05 05:41 46.48504 7.02026 21919 ft 471 kts 119°
2026-05-05 05:41 46.47020 7.06166 21929 ft 471 kts 120°
2026-05-05 05:41 46.45488 7.10367 21945 ft 471 kts 120°
2026-05-05 05:41 46.43921 7.14591 21948 ft 471 kts 120°
2026-05-05 05:42 46.42348 7.18770 21911 ft 466 kts 121°
2026-05-05 05:42 46.40796 7.22838 21478 ft 446 kts 121°
2026-05-05 05:42 46.39316 7.26668 20951 ft 431 kts 121°
2026-05-05 05:42 46.37830 7.30458 20405 ft 418 kts 122°
2026-05-05 05:43 46.36401 7.34048 19869 ft 406 kts 122°
2026-05-05 05:43 46.35000 7.37511 19368 ft 394 kts 123°
2026-05-05 05:43 46.33593 7.40885 18843 ft 384 kts 124°
2026-05-05 05:43 46.32213 7.44136 18336 ft 375 kts 124°
2026-05-05 05:44 46.30841 7.47363 17837 ft 366 kts 124°
2026-05-05 05:44 46.29504 7.50503 17368 ft 358 kts 124°
2026-05-05 05:44 46.28468 7.53730 17044 ft 356 kts 109°
2026-05-05 05:44 46.28037 7.57309 16964 ft 360 kts 98°
2026-05-05 05:45 46.27771 7.60939 16961 ft 361 kts 98°
2026-05-05 05:45 46.27495 7.64600 16950 ft 362 kts 98°
2026-05-05 05:45 46.27220 7.68230 16938 ft 362 kts 99°
2026-05-05 05:45 46.26940 7.71915 16944 ft 361 kts 99°
2026-05-05 05:46 46.26666 7.75509 16969 ft 361 kts 99°
2026-05-05 05:46 46.26385 7.79160 16970 ft 361 kts 99°
2026-05-05 05:46 46.26102 7.82826 16966 ft 361 kts 99°
2026-05-05 05:46 46.25836 7.86438 16970 ft 362 kts 97°
2026-05-05 05:47 46.26019 7.90097 16985 ft 367 kts 80°
2026-05-05 05:47 46.26945 7.93572 16967 ft 369 kts 66°
2026-05-05 05:47 46.28070 7.96815 16959 ft 341 kts 66°
2026-05-05 05:47 46.29136 7.99776 16986 ft 315 kts 61°
2026-05-05 05:48 46.30528 8.02170 16987 ft 297 kts 43°
2026-05-05 05:48 46.32228 8.03821 16976 ft 290 kts 27°
2026-05-05 05:48 46.34139 8.04791 17022 ft 293 kts 12°
2026-05-05 05:48 46.36186 8.05051 17044 ft 297 kts 356°
2026-05-05 05:49 46.38206 8.04351 17030 ft 291 kts 330°
2026-05-05 05:49 46.39807 8.02630 17031 ft 280 kts 308°
2026-05-05 05:49 46.40810 8.00405 16988 ft 248 kts 287°
2026-05-05 05:49 46.41201 7.98132 17017 ft 215 kts 269°
2026-05-05 05:50 46.41166 7.96083 17024 ft 188 kts 255°
2026-05-05 05:50 46.40879 7.94353 17002 ft 164 kts 245°
2026-05-05 05:50 46.40436 7.92862 16991 ft 162 kts 237°
2026-05-05 05:50 46.39903 7.91306 16964 ft 179 kts 240°
2026-05-05 05:51 46.39368 7.89561 16492 ft 194 kts 242°
2026-05-05 05:51 46.38837 7.87767 16067 ft 196 kts 242°
2026-05-05 05:51 46.38277 7.85904 15460 ft 206 kts 242°
2026-05-05 05:51 46.37695 7.83976 14891 ft 210 kts 243°
2026-05-05 05:52 46.37104 7.82010 14295 ft 213 kts 243°
2026-05-05 05:52 46.36524 7.80077 13725 ft 198 kts 243°
2026-05-05 05:52 46.36001 7.78339 13226 ft 180 kts 243°
2026-05-05 05:52 46.35517 7.76742 12756 ft 167 kts 243°
2026-05-05 05:53 46.35064 7.75248 12312 ft 158 kts 243°
2026-05-05 05:53 46.34630 7.73814 11908 ft 156 kts 243°
2026-05-05 05:53 46.34193 7.72388 11511 ft 157 kts 242°
2026-05-05 05:53 46.33742 7.70936 11086 ft 157 kts 243°
2026-05-05 05:54 46.33299 7.69479 10666 ft 157 kts 244°
2026-05-05 05:54 46.32866 7.68041 10253 ft 156 kts 244°
2026-05-05 05:54 46.32434 7.66608 9845 ft 157 kts 244°
2026-05-05 05:54 46.31991 7.65138 9397 ft 156 kts 244°
2026-05-05 05:55 46.31560 7.63707 9005 ft 154 kts 244°
2026-05-05 05:55 46.31131 7.62287 8594 ft 155 kts 244°
2026-05-05 05:55 46.30693 7.60865 8193 ft 153 kts 245°
2026-05-05 05:55 46.30269 7.59474 7786 ft 153 kts 245°
2026-05-05 05:56 46.29843 7.58064 7378 ft 152 kts 245°
2026-05-05 05:56 46.29411 7.56658 6976 ft 150 kts 245°
2026-05-05 05:56 46.28976 7.55292 6574 ft 150 kts 245°
2026-05-05 05:56 46.28553 7.53918 6169 ft 150 kts 246°
2026-05-05 05:57 46.28132 7.52526 5738 ft 149 kts 246°
2026-05-05 05:57 46.27719 7.51158 5350 ft 147 kts 246°
2026-05-05 05:57 46.27309 7.49796 4966 ft 147 kts 246°
2026-05-05 05:57 46.26899 7.48437 4566 ft 146 kts 246°
2026-05-05 05:58 46.26494 7.47097 4199 ft 144 kts 246°
2026-05-05 05:58 46.26096 7.45779 4035 ft 140 kts 245°
2026-05-05 05:58 46.25698 7.44460 4043 ft 142 kts 245°
2026-05-05 05:58 46.25297 7.43136 4042 ft 142 kts 245°
2026-05-05 05:59 46.24898 7.41816 4034 ft 143 kts 245°
2026-05-05 05:59 46.24491 7.40485 4012 ft 145 kts 244°
2026-05-05 05:59 46.24001 7.39198 3715 ft 144 kts 243°
2026-05-05 05:59 46.23548 7.37887 3414 ft 144 kts 243°
2026-05-05 06:00 46.22968 7.36731 3090 ft 139 kts 225°
2026-05-05 06:00 46.22264 7.35735 2903 ft 139 kts 225°
2026-05-05 06:00 46.21627 7.34688 2734 ft 137 kts 231°
2026-05-05 06:00 46.21140 7.33487 2659 ft 135 kts 248°
2026-05-05 06:01 46.20825 7.32211 2656 ft 135 kts 253°
2026-05-05 06:01 46.20486 7.30924 2666 ft 135 kts 247°
2026-05-05 06:01 46.20203 7.29627 2637 ft 138 kts 268°
2026-05-05 06:01 46.20680 7.28514 2557 ft 138 kts 334°
2026-05-05 06:02 46.21584 7.28737 2377 ft 140 kts 47°
2026-05-05 06:02 46.21718 7.30065 1978 ft 138 kts 103°
2026-05-05 06:02 46.21658 7.31471 1629 ft 138 kts 71°
2026-05-05 06:02 46.21931 7.32679 1587 ft 108 kts 72°
2026-05-05 06:03 46.22093 7.33441 1590 ft 52 kts 72°
2026-05-05 06:03 46.22157 7.33743 1591 ft 10 kts 72°
2026-05-05 06:03 46.22195 7.33921 1592 ft 0 kts 72°
2026-05-05 06:03 46.22208 7.33925 1592 ft 3 kts 341°
2026-05-05 06:04 46.22240 7.33899 1592 ft 6 kts 317°
2026-05-05 06:04 46.22237 7.33820 1591 ft 8 kts 253°
2026-05-05 06:04 46.22218 7.33727 1591 ft 11 kts 252°
2026-05-05 06:04 46.22243 7.33687 1591 ft 6 kts 346°
2026-05-05 06:05 46.22253 7.33663 1591 ft 0 kts 248°
2026-05-05 06:05 46.22250 7.33651 1591 ft 0 kts 251°
2026-05-05 06:05 46.22249 7.33645 1591 ft 0 kts 252°
2026-05-05 06:05 46.22249 7.33644 1591 ft 0 kts 252°